Pontiac, MI

11:23 PM EDT on May 25, 2018 (GMT -0400)
Oakland County International

Weather History for KPTK - March, 2014

Change the Weather History Date:

Monday, March 17, 2014

  Actual Average Record
Temperature  
Mean Temperature 18 °F -  
Max Temperature 30 °F 40 °F 75 °F (2012)
Min Temperature 5 °F 23 °F 5 °F (2014)
Degree Days  
Heating Degree Days 48    
Moisture  
Dew Point 3 °F    
Average Humidity 56    
Maximum Humidity 80    
Minimum Humidity 32    
Precipitation  
Precipitation 0.00 in - - ()
Snow  
Snow 0.00 in - - ()
Snow Depth 8.00 in    
Sea Level Pressure  
Sea Level Pressure 30.06 in    
Wind  
Wind Speed 8 mph (East)    
Max Wind Speed 13 mph    
Max Gust Speed -    
Visibility 10 miles    
Events      
Averages and records for this station are not official NWS values.
T = Trace of Precipitation, MM = Missing Value Source: NWS Daily Summary

Daily Weather History Graph

Daily Weather History Graph

Search for Another Location

Airport or City:

Astronomy

Mar. 17, 2014 Rise Set
Actual Time 7:42 AM EDT 7:42 PM EDT
Civil Twilight 7:14 AM EDT 8:10 PM EDT
Nautical Twilight 6:41 AM EDT 8:43 PM EDT
Astronomical Twilight 6:07 AM EDT 9:17 PM EDT
Moon 9:00 PM EDT (3/17) 7:55 AM EDT (3/17)
Length of Visible Light 12h 56m
Length of Day
12h 00m
Full, 99% of the Moon is Illuminated
Mar 17
Full
Mar 23
Last Quarter
Mar 30
New
Apr 7
First Quarter
Apr 15
Full

Hourly Weather History & Observations

Time (EDT) Temp. Windchill Dew Point Humidity Pressure Visibility Wind Dir Wind Speed Gust Speed Precip Events Conditions
12:53 AM 7.0 °F -5.7 °F -0.0 °F 73% 30.22 in 10.0 mi NE 8.1 mph - N/A   Clear
1:53 AM 7.0 °F -5.7 °F 1.0 °F 77% 30.19 in 10.0 mi NNE 8.1 mph - N/A   Clear
2:53 AM 6.1 °F -2.8 °F 1.0 °F 80% 30.19 in 10.0 mi NE 4.6 mph - N/A   Clear
3:53 AM 5.0 °F -4.1 °F -0.0 °F 80% 30.16 in 10.0 mi ENE 4.6 mph - N/A   Clear
4:53 AM 6.1 °F -5.6 °F 1.0 °F 80% 30.14 in 10.0 mi ENE 6.9 mph - N/A   Clear
5:53 AM 7.0 °F -3.3 °F -0.9 °F 70% 30.13 in 10.0 mi East 5.8 mph - N/A   Mostly Cloudy
6:53 AM 8.1 °F -3.2 °F -2.0 °F 64% 30.13 in 10.0 mi East 6.9 mph - N/A   Mostly Cloudy
7:53 AM 8.1 °F -4.3 °F -2.0 °F 64% 30.12 in 10.0 mi East 8.1 mph - N/A   Mostly Cloudy
8:53 AM 9.0 °F -2.2 °F -0.9 °F 64% 30.12 in 10.0 mi East 6.9 mph - N/A   Mostly Cloudy
9:53 AM 12.9 °F -1.6 °F -0.9 °F 54% 30.10 in 10.0 mi East 12.7 mph - N/A   Mostly Cloudy
10:53 AM 16.0 °F 3.6 °F 1.0 °F 52% 30.10 in 10.0 mi East 10.4 mph - N/A   Partly Cloudy
11:53 AM 18.0 °F 6.1 °F 1.9 °F 50% 30.09 in 10.0 mi East 10.4 mph - N/A   Partly Cloudy
12:53 PM 21.0 °F 9.9 °F 3.0 °F 46% 30.07 in 10.0 mi East 10.4 mph - N/A   Scattered Clouds
1:53 PM 24.1 °F 15.2 °F 5.0 °F 44% 30.04 in 10.0 mi ENE 8.1 mph - N/A   Scattered Clouds
2:53 PM 26.1 °F 18.4 °F 5.0 °F 41% 29.99 in 10.0 mi East 6.9 mph - N/A   Mostly Cloudy
3:53 PM 28.0 °F 19.3 °F 5.0 °F 38% 29.97 in 10.0 mi East 9.2 mph - N/A   Mostly Cloudy
4:53 PM 28.9 °F 19.2 °F 3.9 °F 35% 29.96 in 10.0 mi ESE 11.5 mph - N/A   Mostly Cloudy
5:53 PM 30.0 °F 21.1 °F 3.0 °F 32% 29.95 in 10.0 mi SE 10.4 mph - N/A   Partly Cloudy
6:53 PM 28.9 °F 19.8 °F 6.1 °F 38% 29.96 in 10.0 mi ESE 10.4 mph - N/A   Partly Cloudy
7:53 PM 26.1 °F 16.2 °F 7.0 °F 44% 29.97 in 10.0 mi ESE 10.4 mph - N/A   Scattered Clouds
8:53 PM 25.0 °F 17.1 °F 10.0 °F 53% 29.96 in 10.0 mi ESE 6.9 mph - N/A   Scattered Clouds
9:53 PM 24.1 °F 17.0 °F 10.9 °F 57% 29.98 in 10.0 mi ESE 5.8 mph - N/A   Partly Cloudy
10:53 PM 24.1 °F 19.7 °F 10.9 °F 57% 30.00 in 10.0 mi East 3.5 mph - N/A   Scattered Clouds
11:53 PM 24.1 °F 15.2 °F 12.0 °F 60% 29.99 in 10.0 mi East 8.1 mph - N/A   Overcast